El Paso, TX

4:08 PM MST on November 20, 2017 (GMT -0700)
El Paso International

Weather History for KELP - May, 2013

Change the Weather History Date:

Sunday, May 26, 2013

  Actual Average Record
Temperature  
Mean Temperature 81 °F 77 °F  
Max Temperature 96 °F 91 °F 102 °F (1951)
Min Temperature 66 °F 63 °F 48 °F (1975)
Degree Days  
Heating Degree Days 0 0  
Month to date heating degree days 21 6  
Since 1 July heating degree days 2219 2471  
Cooling Degree Days 16 12  
Month to date cooling degree days 253 221  
Year to date cooling degree days 420 313  
Growing Degree Days 31 (Base 50)    
Moisture  
Dew Point 25 °F    
Average Humidity 28    
Maximum Humidity 52    
Minimum Humidity 4    
Precipitation  
Precipitation 0.00 in 0.02 in 0.29 in (1952)
Month to date precipitation 0.18 0.38  
Year to date precipitation 0.89 1.73  
Snow  
Snow 0.00 in - - ()
Month to date snowfall 0.0  
Since 1 July snowfall 3.1  
Snow Depth 0.00 in    
Sea Level Pressure  
Sea Level Pressure 29.76 in    
Wind  
Wind Speed 10 mph (SW)    
Max Wind Speed 24 mph    
Max Gust Speed 30 mph    
Visibility 10 miles    
Events      
T = Trace of Precipitation, MM = Missing Value Source: NWS Daily Summary

Daily Weather History Graph

Daily Weather History Graph

Search for Another Location

Airport or City:

Trip Planner

Search our weather history database for the weather conditions in past years. The results will help you decide how hot, cold, wet, or windy it might be!

Date:

Astronomy

May. 26, 2013 Rise Set
Actual Time 6:02 AM MDT 8:02 PM MDT
Civil Twilight 5:35 AM MDT 8:30 PM MDT
Nautical Twilight 5:01 AM MDT 9:03 PM MDT
Astronomical Twilight 4:26 AM MDT 9:39 PM MDT
Moon 9:54 PM MDT (5/26) 7:33 AM MDT (5/26)
Length of Visible Light 14h 55m
Length of Day
14h 00m
Waning Gibbous, 96% of the Moon is Illuminated
May 26
Waning Gibbous
May 31
Last Quarter
Jun 8
New
Jun 16
First Quarter
Jun 23
Full

Hourly Weather History & Observations

Time (MDT) Temp. Dew Point Humidity Pressure Visibility Wind Dir Wind Speed Gust Speed Precip Events Conditions
12:51 AM 79.0 °F 44.1 °F 29% 29.77 in 10.0 mi SE 10.4 mph 19.6 mph N/A   Clear
1:51 AM 75.9 °F 48.0 °F 37% 29.77 in 10.0 mi SE 12.7 mph - N/A   Clear
2:51 AM 73.9 °F 48.9 °F 41% 29.77 in 10.0 mi SE 9.2 mph - N/A   Clear
3:51 AM 71.1 °F 48.9 °F 45% 29.78 in 10.0 mi SE 3.5 mph - N/A   Clear
4:51 AM 66.0 °F 48.0 °F 52% 29.80 in 10.0 mi SSE 6.9 mph - N/A   Clear
5:51 AM 68.0 °F 46.0 °F 45% 29.81 in 10.0 mi SSW 4.6 mph - N/A   Clear
6:51 AM 72.0 °F 25.0 °F 17% 29.82 in 10.0 mi SW 8.1 mph - N/A   Scattered Clouds
7:51 AM 75.9 °F 16.0 °F 10% 29.83 in 10.0 mi South 4.6 mph - N/A   Scattered Clouds
8:51 AM 80.1 °F 16.0 °F 9% 29.84 in 10.0 mi South 5.8 mph - N/A   Scattered Clouds
9:51 AM 86.0 °F 19.0 °F 8% 29.83 in 10.0 mi West 13.8 mph - N/A   Partly Cloudy
10:51 AM 88.0 °F 21.9 °F 9% 29.81 in 10.0 mi WSW 16.1 mph - N/A   Partly Cloudy
11:51 AM 90.0 °F 25.0 °F 10% 29.81 in 10.0 mi WSW 16.1 mph 26.5 mph N/A   Partly Cloudy
12:51 PM 91.9 °F 25.0 °F 9% 29.79 in 10.0 mi West 16.1 mph 24.2 mph N/A   Partly Cloudy
1:51 PM 91.0 °F 24.1 °F 9% 29.78 in 10.0 mi West 8.1 mph 21.9 mph N/A   Scattered Clouds
2:51 PM 93.0 °F 26.1 °F 9% 29.75 in 10.0 mi WSW 5.8 mph 19.6 mph N/A   Scattered Clouds
3:51 PM 95.0 °F 26.1 °F 9% 29.73 in 10.0 mi West 10.4 mph 18.4 mph N/A   Mostly Cloudy
4:51 PM 96.1 °F 25.0 °F 8% 29.71 in 10.0 mi WSW 19.6 mph 27.6 mph N/A   Mostly Cloudy
5:51 PM 93.0 °F 26.1 °F 9% 29.69 in 10.0 mi SSW 9.2 mph - N/A   Mostly Cloudy
6:51 PM 93.0 °F 21.9 °F 8% 29.67 in 10.0 mi West 6.9 mph - N/A   Mostly Cloudy
7:51 PM 91.0 °F 16.0 °F 6% 29.67 in 10.0 mi West 15.0 mph - N/A   Mostly Cloudy
8:51 PM 89.1 °F 10.0 °F 5% 29.68 in 10.0 mi WNW 12.7 mph - N/A   Scattered Clouds
9:51 PM 87.1 °F 3.9 °F 4% 29.70 in 10.0 mi West 15.0 mph - N/A   Partly Cloudy
10:51 PM 86.0 °F 3.9 °F 4% 29.72 in 10.0 mi WNW 8.1 mph - N/A   Partly Cloudy
11:51 PM 84.9 °F 3.9 °F 5% 29.72 in 10.0 mi West 12.7 mph 19.6 mph N/A   Clear